Find Starlink 31723

NORAD ID: 59553 Int'l Des: 2024-074 Owner: SPXS Country: US Constellation: starlink operational
LEOCIRCULAR

Live Position

Loading 3D Globe...

About Starlink 31723

Description loading...

Upcoming Passes

Passes for default location (London). Set your location on the main map for personalized predictions.

Altitude History

Loading altitude history...

Two-Line Element Set

1 59553U 24074V 26123.47731093 .00006897 00000-0 25989-3 0 9998
2 59553 43.0046 34.0864 0000889 277.6201 82.4550 15.27582733114396
Epoch: May 3, 2026 • Age: 14 hours

Current Status

Altitude 488.9 km
Velocity 7.62 km/s
Sub-Earth Point -25.68°S, 116.89°E
Launch Date Apr 18, 2024
Age 2 years
Type internet

Technical Details

Classification Payload
Mass 730.00 kg
Dry Mass 700.00 kg
Total Mass 730.00 kg
Length 0.30 m
Diameter 4.10 m
Span 29.00 m
Shape Box + pan
Manufacturer SPXS
Bus Type Starlink V2M
Phase Status In Orbit
Owner/State SPXS/US

Most Searched